User: anonymous   Login
Location: �chenoz-la-M�line
(47.6009°N, 6.1354°E)
Time: 08:49:41
(UTC+00:00)
Language:

STARLINK-2130 - Orbit

View from above orbital plane
View from above orbital plane
View from above satellite
View from above satellite

Ground track
Ground track

The orbit data is extracted from the following two-line orbital elements,

1 47405C 21005BJ  21103.14120966  .00004581  00000-0  30697-3 0  1037
2 47405  53.0528 184.1831 0000899  97.8871 144.5950 15.06388534    19
Epoch (UTC): 13 April 2021 03:23:20
Eccentricity: 0.0000899
inclination: 53.0528°
perigee height: 546 km
apogee height: 548 km
right ascension of ascending node: 184.1831°
argument of perigee: 97.8871°
revolutions per day: 15.06388534
mean anomaly at epoch: 144.5950°
orbit number at epoch: 1

The dashed part of the orbit path shows where the satellite is in the earth's shadow,  

DLR